Tracking 20228 objects as of 17-Jan-2020
HD Live streaming from Space Station
objects crossing your sky now

METEOR 2-17 DEB

Track METEOR 2-17 DEB now!
10-day predictions


NORAD ID: 35373
Int'l Code: 1988-005AH
Perigee: 910.6 km
Apogee: 941.6 km
Inclination: 82.5 °
Period: 103.4 minutes
Semi major axis: 7297 km
RCS: 0.0092 m2 (small)
Launch date: January 30, 1988
Source: Commonwealth of Independent States (former USSR) (CIS)
Launch site: PLESETSK MISSILE AND SPACE COMPLEX (PKMTR)

Note: This is SATELLITE DEBRIS
aabbcc
Your satellite tracking list
Your tracking list is empty




NASA's NSSDC Master Catalog

Two Line Element Set (TLE):
1 35373U 88005AH  20016.64018515  .00000091  00000-0  58214-4 0  9995
2 35373  82.5290 359.6094 0021262 146.0608 214.1923 13.92762446560897
Source of the keplerian elements: AFSPC